GW3250 Weather Reports


time (UTC)temp
C
wind
direction
speed
KPH
gust
KPH
rain 1hr
cm
rain 24hr
cm
rain mn
cm
humidity
%
barometer
mb
20260508153615 9 248 6.4 11.3 0.00 0.20 0.20 64 1009.4
20260508153112 10 112 4.8 6.4 0.00 0.20 0.20 64 1009.1
20260508152609 10 345 1.6 4.8 0.00 0.20 0.20 62 1009.0
20260508152104 11 195 4.8 4.8 0.00 0.20 0.20 63 1009.1
20260508151601 11 226 3.2 3.2 0.00 0.20 0.20 62 1009.0
20260508151058 11 203 1.6 3.2 0.00 0.20 0.20 60 1009.1
20260508150555 11 207 3.2 4.8 0.00 0.20 0.20 68 1009.2
20260508150050 10 213 4.8 6.4 0.00 0.20 0.20 63 1009.2
20260508145542 10 246 4.8 4.8 0.00 0.20 0.20 69 1009.1
20260508145038 10 176 1.6 3.2 0.00 0.20 0.20 67 1009.3
20260508144536 10 218 3.2 3.2 0.00 0.20 0.20 66 1009.3
20260508144033 10 174 3.2 3.2 0.00 0.20 0.20 69 1009.2
20260508143531 8 226 4.8 4.8 0.00 0.20 0.20 75 1009.4
20260508143026 8 183 1.6 1.6 0.00 0.20 0.20 77 1009.3
20260508142518 9 173 4.8 4.8 0.00 0.20 0.20 73 1009.4
20260508142015 10 207 3.2 3.2 0.00 0.20 0.20 70 1009.3
20260508141511 10 25 1.6 1.6 0.00 0.20 0.20 74 1009.4
20260508141009 10 178 3.2 3.2 0.00 0.20 0.20 71 1009.5
20260508140506 9 235 4.8 4.8 0.00 0.20 0.20 75 1009.3
20260508140002 9 198 3.2 3.2 0.00 0.20 0.20 74 1009.3
20260508135458 9 82 0.0 1.6 0.00 0.20 0.20 71 1009.3
20260508134955 10 53 1.6 1.6 0.00 0.20 0.20 74 1009.4
20260508134451 8 195 0.0 0.0 0.00 0.20 0.20 76 1009.7
20260508133948 8 224 1.6 1.6 0.00 0.20 0.20 85 1009.6
20260508133445 7 203 4.8 4.8 0.00 0.20 0.20 84 1009.7
20260508132942 8 210 0.0 0.0 0.00 0.20 0.20 83 1009.6
20260508132440 7 232 3.2 3.2 0.00 0.20 0.20 84 1009.6
20260508131937 7 35 1.6 3.2 0.00 0.20 0.20 86 1009.9
20260508131432 8 213 3.2 4.8 0.00 0.20 0.20 87 1009.9
20260508130929 7 211 3.2 3.2 0.00 0.20 0.20 85 1009.9
20260508130426 7 210 0.0 0.0 0.00 0.20 0.20 91 1010.1
20260508125922 7 159 1.6 1.6 0.00 0.20 0.20 90 1009.9
20260508125418 7 199 0.0 1.6 0.00 0.20 0.20 95 1009.8
20260508124916 6 263 3.2 3.2 0.00 0.20 0.20 96 1009.7
20260508124413 6 181 1.6 1.6 0.00 0.20 0.20 97 1009.7
20260508123911 5 138 0.0 1.6 0.00 0.20 0.20 98 1009.9
20260508123410 5 178 1.6 1.6 0.00 0.20 0.20 99 1009.9
20260508122905 5 189 1.6 1.6 0.00 0.20 0.20 99 1009.8
20260508122403 5 173 3.2 3.2 0.00 0.20 0.20 99 1009.8
20260508121900 5 173 3.2 3.2 0.00 0.20 0.20 99 1009.5
20260508121358 5 172 1.6 3.2 0.00 0.20 0.20 99 1009.6
20260508120855 5 153 0.0 0.0 0.00 0.20 0.20 99 1009.6
20260508120353 4 151 1.6 1.6 0.00 0.20 0.20 99 1009.9
20260508115850 4 160 1.6 1.6 0.00 0.20 0.20 99 1009.8
20260508115348 3 154 0.0 1.6 0.00 0.20 0.20 99 1009.7
20260508114844 3 158 0.0 0.0 0.00 0.20 0.20 99 1009.9
20260508114341 3 159 0.0 0.0 0.00 0.20 0.20 99 1009.9
20260508113838 3 126 1.6 1.6 0.00 0.20 0.20 99 1009.6
20260508113336 3 329 1.6 1.6 0.00 0.20 0.20 99 1009.8
20260508112832 3 186 0.0 1.6 0.00 0.20 0.20 99 1009.9
20260508112329 3 186 1.6 1.6 0.00 0.20 0.20 99 1009.9
20260508111826 3 186 3.2 3.2 0.00 0.20 0.20 99 1009.8
20260508111323 3 186 0.0 1.6 0.00 0.20 0.20 99 1009.7
20260508110820 3 186 0.0 0.0 0.00 0.20 0.20 99 1009.4
20260508110318 2 186 1.6 3.2 0.00 0.20 0.20 99 1009.6
20260508105817 2 186 1.6 1.6 0.00 0.20 0.20 99 1009.5
20260508105314 2 186 0.0 1.6 0.00 0.20 0.20 99 1009.7
20260508104811 2 186 0.0 0.0 0.00 0.20 0.20 99 1009.5
20260508104308 3 186 0.0 0.0 0.00 0.20 0.20 99 1009.4
20260508103805 3 186 0.0 0.0 0.00 0.20 0.20 99 1009.2
20260508103302 2 186 0.0 0.0 0.00 0.20 0.20 99 1009.5
20260508102800 2 186 1.6 1.6 0.00 0.20 0.20 99 1009.3
20260508102258 2 186 0.0 1.6 0.18 0.20 0.20 99 1009.4
20260508101755 2 186 0.0 1.6 0.18 0.20 0.20 99 1009.2
20260508101252 2 186 1.6 1.6 0.00 0.18 0.18 99 1009.4
20260508100749 2 186 0.0 1.6 0.00 0.18 0.18 99 1009.3
20260508100248 2 185 0.0 0.0 0.00 0.18 0.18 99 1009.1
20260508095743 2 185 0.0 0.0 0.00 0.18 0.18 99 1009.3
20260508095241 2 185 0.0 0.0 0.00 0.18 0.18 99 1009.2
20260508094737 2 185 1.6 1.6 0.00 0.18 0.18 99 1009.1
20260508094235 2 185 1.6 1.6 0.00 0.18 0.18 99 1009.1
20260508093732 2 185 1.6 3.2 0.00 0.18 0.18 99 1009.0
20260508093229 2 185 0.0 0.0 0.00 0.18 0.18 99 1008.7
20260508092726 2 185 0.0 0.0 0.00 0.18 0.18 99 1008.8
20260508092224 2 185 0.0 0.0 0.00 0.18 0.18 99 1009.0
20260508091722 2 185 0.0 0.0 0.00 0.18 0.18 99 1008.7
20260508091219 2 185 0.0 0.0 0.00 0.18 0.18 99 1008.6
20260508090717 2 185 0.0 0.0 0.00 0.18 0.18 99 1008.7
20260508090214 3 185 0.0 0.0 0.00 0.18 0.18 99 1008.7
20260508085710 3 185 0.0 1.6 0.00 0.18 0.18 99 1009.0
20260508085207 3 185 0.0 0.0 0.00 0.18 0.18 99 1009.0
20260508084703 3 185 0.0 1.6 0.00 0.18 0.18 99 1009.0
20260508084201 3 185 0.0 1.6 0.00 0.18 0.18 99 1008.9
20260508083658 2 185 0.0 0.0 0.00 0.18 0.18 99 1008.8
20260508083155 2 185 0.0 0.0 0.00 0.18 0.18 99 1008.6
20260508082650 2 185 0.0 0.0 0.00 0.18 0.18 99 1008.7
20260508082148 2 185 0.0 0.0 0.00 0.18 0.18 99 1008.7
20260508081645 2 185 1.6 1.6 0.00 0.18 0.18 99 1008.5
20260508081141 3 185 0.0 1.6 0.00 0.18 0.18 99 1008.6
20260508080638 3 185 0.0 0.0 0.00 0.18 0.18 99 1008.5
20260508080136 3 185 0.0 0.0 0.00 0.18 0.18 99 1008.7
20260508075627 3 186 0.0 0.0 0.00 0.18 0.18 99 1008.5
20260508075124 3 186 0.0 0.0 0.00 0.18 0.18 99 1008.6
20260508074622 3 185 0.0 0.0 0.00 0.18 0.18 99 1008.6
20260508074119 3 185 0.0 0.0 0.00 0.18 0.18 99 1008.4
20260508073616 3 185 0.0 0.0 0.00 0.18 0.18 99 1008.4
20260508073114 3 186 0.0 0.0 0.00 0.18 0.18 99 1008.5
20260508072609 3 185 0.0 0.0 0.00 0.18 0.18 99 1008.3
20260508072106 4 186 0.0 0.0 0.00 0.18 0.18 99 1008.4
20260508071604 4 186 0.0 0.0 0.00 0.18 0.18 99 1008.6
20260508071103 5 186 0.0 0.0 0.00 0.18 0.18 99 1008.5
20260508070559 5 186 0.0 0.0 0.00 0.18 0.18 99 1008.4
20260508070058 5 186 0.0 1.6 0.00 0.18 0.18 99 1008.7
20260508065555 5 186 1.6 1.6 0.00 0.18 0.18 99 1008.2
20260508065053 5 186 1.6 1.6 0.00 0.18 0.18 99 1008.3
20260508064550 5 185 0.0 0.0 0.00 0.18 0.18 99 1008.3
20260508064048 5 185 1.6 1.6 0.00 0.18 0.18 99 1008.6
20260508063545 5 185 1.6 1.6 0.00 0.18 0.18 99 1008.4
20260508063043 5 177 1.6 1.6 0.00 0.18 0.18 99 1008.4
20260508062540 5 177 0.0 0.0 0.00 0.18 0.18 99 1008.6
20260508062037 5 177 0.0 0.0 0.00 0.18 0.18 99 1008.9
20260508061535 5 178 1.6 1.6 0.18 0.18 0.18 99 1008.9
20260508061031 5 170 1.6 1.6 0.18 0.18 0.18 99 1009.0
20260508060528 5 171 1.6 1.6 0.00 0.15 0.15 99 1008.9
20260508060026 5 170 0.0 0.0 0.00 0.15 0.15 98 1009.0
20260508055521 5 170 0.0 1.6 0.00 0.15 0.15 98 1008.8
20260508055018 5 170 0.0 1.6 0.00 0.15 0.15 98 1008.8
20260508054515 5 170 0.0 0.0 0.00 0.15 0.15 97 1008.6
20260508054012 5 170 0.0 0.0 0.00 0.15 0.15 97 1009.0
20260508053509 5 170 0.0 0.0 0.00 0.15 0.15 96 1008.9
20260508053007 5 170 0.0 0.0 0.00 0.15 0.15 96 1009.1
20260508052504 5 170 0.0 0.0 0.00 0.15 0.15 95 1009.1
20260508052000 5 170 0.0 0.0 0.00 0.15 0.15 95 1009.2
20260508051456 5 170 0.0 0.0 0.30 0.15 0.15 94 1009.3
20260508050952 5 172 3.2 3.2 0.61 0.15 0.15 93 1009.4
20260508050449 5 169 1.6 1.6 0.43 0.10 0.10 93 1009.5
20260508045945 6 167 1.6 1.6 0.48 0.08 0.08 91 1009.0
20260508045442 6 168 1.6 4.8 0.18 0.03 0.03 88 1009.4
20260508044940 6 231 3.2 4.8 0.00 0.00 0.00 85 1009.1
20260508044437 7 284 4.8 6.4 0.00 0.00 0.00 83 1008.8
20260508043932 7 201 1.6 1.6 0.00 0.00 0.00 78 1008.2
20260508043430 6 200 0.0 1.6 0.00 0.00 0.00 77 1007.8
20260508042926 7 200 0.0 0.0 0.00 0.00 0.00 78 1007.6
20260508042424 7 200 0.0 1.6 0.00 0.00 0.00 78 1007.4
20260508041920 7 200 1.6 1.6 0.00 0.00 0.00 79 1007.3
20260508041417 7 200 0.0 1.6 0.00 0.00 0.00 79 1007.3
20260508040913 7 200 0.0 1.6 0.00 0.00 0.00 79 1006.8
20260508040410 7 200 0.0 0.0 0.00 0.00 0.00 80 1006.8
20260508035908 7 200 0.0 0.0 0.00 0.03 0.03 78 1006.9
20260508035400 7 201 0.0 0.0 0.00 0.03 0.03 78 1007.0
20260508034856 7 201 1.6 1.6 0.00 0.03 0.03 80 1007.2
20260508034353 7 201 0.0 1.6 0.00 0.03 0.03 78 1006.9
20260508033850 7 201 1.6 1.6 0.00 0.03 0.03 77 1006.9
20260508033349 7 201 1.6 1.6 0.00 0.03 0.03 72 1006.9
20260508032846 8 201 1.6 1.6 0.00 0.03 0.03 71 1006.9
20260508032343 8 89 1.6 3.2 0.00 0.03 0.03 65 1006.9
20260508031840 8 88 0.0 0.0 0.00 0.03 0.03 65 1006.8
20260508031337 7 124 0.0 0.0 0.00 0.03 0.03 66 1006.8
20260508030833 7 124 0.0 0.0 0.00 0.03 0.03 69 1006.9
20260508030330 7 124 0.0 0.0 0.00 0.03 0.03 71 1007.0
20260508025827 8 124 1.6 1.6 0.00 0.03 0.03 69 1007.0
20260508025324 8 124 0.0 0.0 0.00 0.03 0.03 65 1007.0
20260508024821 8 127 0.0 1.6 0.00 0.03 0.03 64 1007.3
20260508024317 8 127 0.0 0.0 0.00 0.03 0.03 64 1007.2
20260508023814 8 54 0.0 0.0 0.00 0.03 0.03 62 1007.2
20260508023311 8 162 0.0 0.0 0.00 0.03 0.03 64 1007.2
20260508022807 8 162 0.0 0.0 0.00 0.03 0.03 62 1007.0
20260508022306 8 162 0.0 0.0 0.00 0.03 0.03 62 1007.2
20260508021801 8 162 0.0 0.0 0.00 0.03 0.03 63 1006.9
20260508021256 8 162 0.0 0.0 0.00 0.03 0.03 64 1007.2
20260508020753 8 162 1.6 1.6 0.00 0.03 0.03 61 1007.4
20260508020251 7 162 0.0 1.6 0.00 0.03 0.03 63 1007.0
20260508015747 7 163 0.0 0.0 0.00 0.03 0.03 64 1007.2
20260508015245 8 163 0.0 0.0 0.00 0.03 0.03 63 1007.3
20260508014741 8 162 0.0 0.0 0.00 0.03 0.03 63 1007.0
20260508014238 8 162 0.0 0.0 0.00 0.03 0.03 61 1007.2
20260508013734 8 162 0.0 0.0 0.00 0.03 0.03 61 1006.9
20260508013231 8 162 0.0 0.0 0.00 0.03 0.03 62 1007.2
20260508012728 8 162 0.0 0.0 0.00 0.03 0.03 62 1007.3
20260508012225 8 162 0.0 0.0 0.00 0.03 0.03 62 1007.2
20260508011723 8 162 0.0 0.0 0.00 0.03 0.03 62 1007.2
20260508011220 8 162 0.0 0.0 0.00 0.03 0.03 60 1007.0
20260508010717 8 162 0.0 0.0 0.00 0.03 0.03 61 1006.9
20260508010215 8 162 0.0 0.0 0.00 0.03 0.03 59 1006.9
20260508005712 8 162 0.0 0.0 0.00 0.03 0.03 59 1006.9
20260508005208 8 162 0.0 1.6 0.00 0.03 0.03 60 1006.8
20260508004704 8 162 0.0 1.6 0.00 0.03 0.03 58 1006.5
20260508004200 8 162 0.0 1.6 0.00 0.03 0.03 59 1006.4
20260508003657 8 162 0.0 0.0 0.00 0.03 0.03 58 1006.4
20260508003155 8 162 1.6 1.6 0.00 0.03 0.03 60 1006.5
20260508002651 8 162 1.6 1.6 0.00 0.03 0.03 59 1006.4
20260508002149 9 162 0.0 1.6 0.00 0.03 0.03 56 1006.2
20260508001644 9 162 0.0 0.0 0.00 0.03 0.03 56 1006.4
20260508001140 9 162 0.0 0.0 0.00 0.03 0.03 56 1006.3
20260508000636 9 162 0.0 0.0 0.00 0.03 0.03 55 1006.4
20260508000134 9 162 0.0 0.0 0.00 0.03 0.03 57 1006.3
20260507235630 10 162 0.0 0.0 0.00 0.03 0.03 57 1006.1
20260507235128 10 162 0.0 0.0 0.00 0.03 0.03 53 1006.0
20260507234624 10 162 1.6 1.6 0.00 0.03 0.03 53 1006.1
20260507234121 10 162 0.0 0.0 0.00 0.03 0.03 53 1006.1
20260507233618 11 162 0.0 0.0 0.00 0.03 0.03 52 1005.8
20260507233116 11 189 0.0 1.6 0.00 0.03 0.03 52 1006.0
20260507232613 11 189 0.0 0.0 0.00 0.03 0.03 51 1006.2
20260507232110 11 189 0.0 1.6 0.00 0.03 0.03 49 1006.0
20260507231606 11 188 0.0 1.6 0.00 0.03 0.03 48 1006.0
20260507231103 11 202 0.0 0.0 0.00 0.03 0.03 49 1006.0
20260507230559 11 203 0.0 0.0 0.00 0.03 0.03 49 1006.0
20260507230056 11 203 1.6 1.6 0.00 0.03 0.03 55 1006.0
20260507225551 11 169 0.0 1.6 0.00 0.03 0.03 48 1006.0
20260507225048 11 173 0.0 1.6 0.00 0.03 0.03 49 1005.9
20260507224543 11 194 1.6 1.6 0.00 0.03 0.03 48 1006.0
20260507224040 12 73 0.0 0.0 0.00 0.03 0.03 46 1005.9
20260507223536 12 175 0.0 0.0 0.00 0.03 0.03 49 1005.8
20260507223034 12 92 1.6 3.2 0.00 0.03 0.03 48 1005.6
20260507222531 12 87 1.6 1.6 0.00 0.03 0.03 46 1005.6
20260507222027 12 104 1.6 1.6 0.00 0.03 0.03 49 1005.9
20260507221523 12 62 1.6 3.2 0.00 0.03 0.03 47 1005.9
20260507221021 12 114 1.6 1.6 0.00 0.03 0.03 46 1005.8
20260507220518 12 66 4.8 4.8 0.00 0.03 0.03 45 1005.7
20260507220015 12 183 1.6 1.6 0.00 0.03 0.03 46 1005.7
20260507215511 12 125 1.6 1.6 0.00 0.03 0.03 48 1005.9
20260507215009 12 201 0.0 1.6 0.00 0.03 0.03 47 1005.9
20260507214506 13 175 1.6 1.6 0.00 0.03 0.03 45 1005.7
20260507214001 13 227 4.8 4.8 0.00 0.03 0.03 43 1006.0
20260507213458 12 209 3.2 3.2 0.00 0.03 0.03 46 1005.7
20260507212955 12 177 4.8 6.4 0.00 0.03 0.03 47 1006.0
20260507212451 12 183 3.2 3.2 0.00 0.03 0.03 47 1006.0
20260507211948 12 184 1.6 3.2 0.00 0.03 0.03 45 1005.8
20260507211444 12 132 3.2 3.2 0.00 0.03 0.03 47 1006.0
20260507210941 12 236 3.2 3.2 0.00 0.03 0.03 46 1005.9
20260507210438 12 85 4.8 6.4 0.00 0.03 0.03 44 1006.0
20260507205934 13 142 1.6 1.6 0.00 0.03 0.03 44 1005.8
20260507205432 14 219 4.8 4.8 0.00 0.03 0.03 42 1005.6
20260507204927 14 199 3.2 4.8 0.00 0.03 0.03 40 1005.7
20260507204419 13 223 6.4 9.7 0.00 0.03 0.03 41 1005.6
20260507203916 13 164 1.6 3.2 0.00 0.03 0.03 45 1005.5
20260507203414 14 320 4.8 4.8 0.00 0.03 0.03 40 1005.7
20260507202910 15 209 6.4 11.3 0.00 0.03 0.03 40 1005.7
20260507202401 13 184 3.2 4.8 0.00 0.03 0.03 44 1005.9
20260507201856 12 95 1.6 1.6 0.00 0.03 0.03 46 1005.6
20260507201352 12 32 6.4 6.4 0.00 0.03 0.03 45 1006.0
20260507200849 12 193 1.6 1.6 0.00 0.03 0.03 45 1005.9
20260507200345 12 136 3.2 3.2 0.00 0.03 0.03 43 1005.9
20260507195841 13 231 1.6 3.2 0.00 0.03 0.03 43 1005.7
20260507195338 13 265 4.8 9.7 0.00 0.03 0.03 45 1005.7
20260507194836 14 204 1.6 3.2 0.00 0.03 0.03 44 1005.8
20260507194332 15 170 4.8 6.4 0.00 0.03 0.03 39 1006.0
20260507193828 15 14 4.8 6.4 0.00 0.03 0.03 39 1006.1
20260507193326 15 160 1.6 1.6 0.00 0.03 0.03 41 1006.2
20260507192821 14 219 1.6 1.6 0.00 0.03 0.03 40 1006.1
20260507192318 15 94 3.2 3.2 0.00 0.03 0.03 41 1005.9
20260507191815 13 55 3.2 4.8 0.00 0.03 0.03 43 1006.0
20260507191311 13 269 6.4 6.4 0.00 0.03 0.03 43 1006.0
20260507190808 12 206 0.0 0.0 0.00 0.03 0.03 47 1006.3
20260507190306 12 177 1.6 3.2 0.00 0.03 0.03 48 1006.4
20260507185804 12 244 4.8 4.8 0.00 0.03 0.03 47 1006.5
20260507185255 12 26 3.2 4.8 0.00 0.03 0.03 46 1006.7
20260507184752 12 222 4.8 4.8 0.00 0.03 0.03 44 1006.9
20260507184250 12 201 0.0 1.6 0.00 0.03 0.03 43 1006.7
20260507183747 13 238 3.2 4.8 0.00 0.03 0.03 44 1006.7
20260507183243 14 250 9.7 12.9 0.00 0.03 0.03 41 1006.6
20260507182741 15 205 4.8 6.4 0.00 0.03 0.03 42 1007.0
20260507182236 15 230 8.0 11.3 0.00 0.03 0.03 40 1006.9
20260507181734 12 213 4.8 6.4 0.00 0.03 0.03 45 1006.8
20260507181230 12 80 1.6 3.2 0.00 0.03 0.03 43 1006.7
20260507180726 12 53 1.6 3.2 0.00 0.03 0.03 46 1006.9
20260507180223 13 168 8.0 9.7 0.00 0.03 0.03 41 1007.2
20260507175719 14 228 4.8 4.8 0.00 0.03 0.03 42 1007.2
20260507175216 13 88 1.6 1.6 0.00 0.03 0.03 45 1007.0
20260507174714 14 5 1.6 3.2 0.00 0.03 0.03 45 1007.0
20260507174211 14 302 1.6 1.6 0.00 0.03 0.03 44 1006.9
20260507173709 14 224 3.2 4.8 0.00 0.03 0.03 41 1007.3
20260507173205 13 116 3.2 4.8 0.00 0.03 0.03 44 1007.2
20260507172702 13 128 3.2 3.2 0.00 0.03 0.03 46 1007.5
20260507172159 14 221 3.2 6.4 0.00 0.03 0.03 41 1007.4
20260507171658 12 82 0.0 1.6 0.00 0.03 0.03 47 1007.6
20260507171156 13 239 9.7 12.9 0.00 0.03 0.03 42 1007.4
20260507170653 13 132 1.6 3.2 0.00 0.03 0.03 44 1007.6
20260507170150 13 216 9.7 14.5 0.00 0.03 0.03 44 1007.7
20260507165646 12 215 3.2 6.4 0.00 0.03 0.03 50 1007.6
20260507165142 13 15 3.2 4.8 0.00 0.03 0.03 46 1007.9
20260507164638 13 229 3.2 4.8 0.00 0.03 0.03 51 1007.8
20260507164135 13 148 4.8 4.8 0.00 0.03 0.03 42 1007.9
20260507163627 12 201 3.2 4.8 0.00 0.03 0.03 49 1007.9
20260507163125 13 74 3.2 3.2 0.00 0.03 0.03 45 1008.1
20260507162620 12 115 4.8 9.7 0.00 0.03 0.03 47 1008.2
20260507162117 13 236 8.0 11.3 0.00 0.03 0.03 45 1008.0
20260507161613 13 254 3.2 4.8 0.00 0.03 0.03 50 1007.9
20260507161110 12 196 1.6 1.6 0.00 0.03 0.03 53 1008.1
20260507160606 12 212 4.8 6.4 0.00 0.03 0.03 48 1008.3
20260507155558 13 52 3.2 3.2 0.00 0.03 0.03 48 1008.4
20260507155055 12 116 1.6 1.6 0.00 0.03 0.03 50 1008.4
20260507154552 12 200 1.6 1.6 0.00 0.03 0.03 45 1008.6
20260507154049 11 241 3.2 3.2 0.00 0.03 0.03 54 1008.5